SCP
0 0 0 0 0 0 0 0 0 0 0 0 0 0 0 0 0 0 0 0 0 0 0 0 0 0 0 0 0 0 0 0 0 0 0 0 0 0 0 0 0 0 0 0
0 0 0 0 0 0 0 0 0 0 0 0 0 0 0 0 0 0 0 0 0 0 0 0 0 0 0 0 0 0 0 0 0 0 0 0 0 0 0 0 0 0 0 0
0 0 0 0 0 0 0 0 0 0 0 0 0 0 0 0 0 0 0 0 0 0 0 0 0 0 0 0 0 0 0 0 0 0 0 0 0 0 0 0 0 0 0 0
0 0 0 0 0 0 0 0 0 0 0 0 0 0 0 0 0 0 0 0 0 0 0 0 0 0 0 0 0 0 0 0 0 0 0 0 0 0 0 0 0 0 0 0
0 0 0 0 0 0 0 0 0 0 0 0 0 0 0 0 0 0 0 0 0 0 0 0 0 0 0 0 0 0 0 0 0 0 0 0 0 0 0 0 0 0 0 0
0 0 0 0 0 0 0 0 0 0 0 0 0 0 0 0 0 0 0 0 0 0 0 0 0 0 0 0 0 0 0 0 0 0 0 0 0 0 0 0 0 0 0 0
0 0 0 0 0 0 0 0 0 0 0 0 0 0 0 0 0 0 0 0 0 0 0 0 0 0 0 0 0 0 0 0 0 0 0 0 0 0 0 0 0 0 0 0
0 0 0 0 0 0 0 0 0 0 0 0 0 0 0 0 0 0 0 0 0 0 0 0 0 0 0 0 0 0 0 0 0 0 0 0 0 0 0 0 0 0 0 0
0 0 0 0 0 0 0 0 0 0 0 0 0 0 0 0 0 0 0 0 0 0 0 0 0 0 0 0 0 0 0 0 0 0 0 0 0 0 0 0 0 0 0 0
0 0 0 0 0 0 0 0 0 0 0 0 0 0 0 0 0 0 0 0 0 0 0 0 0 0 0 0 0 0 0 0 0 0 0 0 0 0 0 0 0 0 0 0
0 0 0 0 0 0 0 0 0 0 0 0 0 0 0 0 0 0 0 0 0 0 0 0 0 0 0 0 0 0 0 0 0 0 0 0 0 0 0 0 0 0 0 0
0 0 0 0 0 0 0 0 0 0 0 0 0 0 0 0 0 0 0 0 0 0 0 0 0 0 0 0 0 0 0 0 0 0 0 0 0 0 0 0 0 0 0 0
0 0 0 0 0 0 0 0 0 0 0 0 0 0 0 0 0 0 0 0 0 0 0 0 0 0 0 0 0 0 0 0 0 0 0 0 0 0 0 0 0 0 0 0
0 0 0 0 0 0 0 0 0 0 0 0 0 0 0 0 0 0 0 0 0 0 0 0 0 0 0 0 0 0 0 0 0 0 0 0 0 0 0 0 0 0 0 0
0 0 0 0 0 0 0 0 0 0 0 0 0 0 0 0 0 0 0 0 0 0 0 0 0 0 0 0 0 0 0 0 0 0 0 0 0 0 0 0 0 0 0 0
0 0 0 0 0 0 0 0 0 0 0 0 0 0 0 0 0 0 0 0 0 0 0 0 0 0 0 0 0 0 0 0 0 0 0 0 0 0 0 0 0 0 0 0
0 0 0 0 0 0 0 0 0 0 0 0 0 0 0 0 0 0 0 0 0 0 0 0 0 0 0 0 0 0 0 0 0 0 0 0 0 0 0 0 0 0 0 0
0 0 0 0 0 0 0 0 0 0 0 0 0 0 0 0 0 0 0 0 0 0 0 0 0 0 0 0 0 0 0 0 0 0 0 0 0 0 0 0 0 0 0 0
0 0 0 0 0 0 0 0 0 0 0 0 0 0 0 0 0 0 0 0 0 0 0 0 0 0 0 0 0 0 0 0 0 0 0 0 0 0 0 0 0 0 0 0
0 0 0 0 0 0 0 0 0 0 0 0 0 0 0 0 0 0 0 0 0 0 0 0 0 0 0 0 0 0 0 0 0 0 0 0 0 0 0 0 0 0 0 0
0 0 0 0 0 0 0 0 0 0 0 0 0 0 0 0 0 0 0 0 0 0 0 0 0 0 0 0 0 0 0 0 0 0 0 0 0 0 0 0 0 0 0 0
0 0 0 0 0 0 0 0 0 0 0 0 0 0 0 0 0 0 0 0 0 0 0 0 0 0 0 0 0 0 0 0 0 0 0 0 0 0 0 0 0 0 0 0
0 0 0 0 0 0 0 0 0 0 0 0 0 0 0 0 0 0 0 0 0 0 0 0 0 0 0 0 0 0 0 0 0 0 0 0 0 0 0 0 0 0 0 0
0 0 0 0 0 0 0 0 0 0 0 0 0 0 0 0 0 0 0 0 0 0 0 0 0 0 0 0 0 0 0 0 0 0 0 0 0 0 0 0 0 0 0 0
0 0 0 0 0 0 0 0 0 0 0 0 0 0 0 0 0 0 0 0 0 0 0 0 0 0 0 0 0 0 0 0 0 0 0 0 0 0 0 0 0 0 0 0
0 0 0 0 0 0 0 0 0 0 0 0 0 0 0 0 0 0 0 0 0 0 0 0 0 0 0 0 0 0 0 0 0 0 0 0 0 0 0 0 0 0 0 0
Wind_Speed
9 10 15 19 22 21 18 19 20 18 16 17 18 16 13 12 12 10 8 7 6 9 9 7 5 5 4 5 6 6 7 7 7 7 7 7 6 6 6 6 8 8 8 8
10 18 21 18 20 24 25 22 19 15 17 16 12 13 10 12 13 10 9 8 8 12 9 7 6 6 7 7 7 8 8 9 9 7 6 7 7 6 5 5 7 8 8 8
21 14 14 19 22 24 26 23 18 16 14 12 6 9 12 14 13 10 8 7 11 15 12 9 8 8 8 8 8 9 10 11 10 10 8 7 6 5 5 5 5 7 8 7
17 19 18 18 22 23 22 21 20 17 11 7 9 6 12 18 15 10 8 7 12 13 12 10 9 8 8 7 7 8 9 9 8 8 7 7 6 6 5 4 4 6 7 7
11 11 16 19 22 21 14 16 20 15 10 7 9 6 7 5 10 10 8 9 13 13 13 11 10 9 8 7 7 8 9 9 9 9 9 8 7 5 4 4 5 5 5 6
16 11 9 13 16 19 14 14 11 6 5 6 8 7 6 7 14 15 11 12 13 13 13 12 10 9 8 7 7 8 9 9 9 9 9 8 8 7 7 6 5 4 4 4
12 14 9 6 9 14 16 11 8 8 7 6 9 8 7 2 8 15 16 15 14 14 13 12 10 9 8 8 7 8 9 9 9 9 9 8 8 8 7 5 5 4 4 3
8 9 12 10 9 8 16 13 6 7 8 6 9 8 3 8 8 11 14 15 14 14 12 11 10 9 9 8 8 8 9 9 8 8 8 8 7 5 4 6 5 4 3 3
6 6 8 11 9 7 10 14 6 1 9 6 6 5 6 6 7 9 13 15 14 14 13 12 11 10 9 8 8 9 9 9 8 8 8 7 7 6 6 6 5 3 3 3
3 6 5 7 5 9 8 7 3 3 7 6 9 9 9 10 10 10 13 15 14 14 13 12 11 10 8 8 9 9 9 8 8 7 6 6 6 6 5 5 5 4 4 4
3 5 2 6 9 9 9 8 6 3 1 3 6 3 3 12 12 12 13 15 15 14 14 12 11 10 9 9 8 9 8 8 8 7 7 7 6 5 5 5 4 4 4 4
7 4 3 3 3 6 5 6 5 2 0 2 4 3 4 8 8 9 12 14 14 13 12 12 11 11 10 9 8 8 8 8 7 7 7 6 5 5 4 4 3 3 4 4
9 6 3 4 3 4 5 6 6 3 2 1 3 4 3 7 6 7 11 13 13 13 13 11 11 10 10 9 9 8 8 8 7 7 7 6 5 5 4 4 3 4 4 4
7 5 5 3 5 8 6 8 8 5 2 1 2 7 6 7 8 7 10 12 13 13 13 12 11 10 9 9 9 9 8 8 7 7 6 6 4 4 3 3 3 4 4 5
4 5 6 6 4 10 10 11 10 9 7 3 3 6 9 9 10 10 10 12 13 13 13 13 12 10 9 9 9 9 8 7 7 7 6 5 3 2 2 3 4 4 5 6
5 5 5 3 4 7 9 13 13 12 11 9 6 4 4 9 10 10 11 12 13 13 12 12 12 11 10 10 10 10 8 7 7 7 6 4 2 2 2 3 4 5 5 6
6 4 3 2 4 3 6 12 14 13 12 11 12 9 1 4 8 11 12 11 11 11 12 12 11 10 10 10 10 9 8 7 7 6 5 3 2 1 2 4 5 5 5 5
7 5 2 0 4 5 4 6 11 12 12 12 10 6 5 5 6 6 7 9 10 11 11 10 10 10 10 10 10 10 8 7 6 5 4 3 1 2 3 4 5 5 5 6
7 4 1 1 3 5 4 2 4 8 8 10 11 8 6 10 9 6 5 7 9 10 11 10 11 12 11 11 10 10 8 7 6 5 3 2 1 2 4 5 5 5 5 6
4 3 1 1 1 3 1 2 2 2 4 3 7 9 13 10 6 4 5 11 12 12 12 12 13 13 12 10 10 9 7 6 5 4 2 0 1 3 4 5 5 5 5 7
6 4 4 3 2 5 1 0 1 4 2 5 2 8 11 5 6 12 12 12 13 13 13 13 13 11 10 9 9 8 7 6 5 4 1 1 2 3 4 4 5 6 6 7
9 7 6 5 5 7 3 2 1 1 1 3 7 12 13 14 16 15 13 12 12 13 12 12 12 10 8 8 8 8 7 6 4 2 1 2 3 3 4 5 5 6 6 7
9 9 6 8 7 2 3 4 3 2 4 6 9 13 16 16 14 13 12 11 10 10 10 10 11 10 7 6 7 8 6 5 3 1 1 2 3 4 4 5 5 5 5 5
4 4 4 5 4 4 4 3 2 6 7 9 11 11 13 15 14 13 11 10 9 9 10 10 10 9 7 6 6 7 6 4 2 0 2 3 4 4 5 4 4 5 5 5
5 5 4 3 5 5 3 3 6 10 11 11 11 11 12 15 13 12 11 9 8 8 7 8 8 8 7 6 6 6 5 3 1 1 2 3 4 4 5 5 5 6 5 7
5 6 7 5 9 7 6 7 10 11 11 11 13 12 9 11 12 11 9 7 7 7 7 7 7 8 7 7 6 5 4 3 1 1 3 3 3 4 4 5 6 10 12 18
Wind_Direction
206 215 222 223 227 238 246 233 224 221 216 224 227 234 233 233 243 239 232 226 176 123 113 118 132 127 97 75 81 96 104 101 97 98 97 92 85 76 66 61 59 55 50 46
227 230 233 235 235 236 242 246 233 221 215 221 228 237 236 231 230 224 222 214 156 124 121 124 123 106 95 84 79 81 85 87 87 90 91 95 95 88 81 67 58 58 52 44
228 236 232 234 234 232 234 237 231 221 211 208 219 255 247 242 235 224 215 195 143 136 135 133 108 89 81 76 78 86 86 89 93 96 99 102 97 93 84 77 68 60 56 45
239 242 241 237 236 228 234 228 231 224 195 193 192 243 241 222 211 202 189 165 137 133 132 127 115 102 91 84 82 89 95 99 103 107 107 106 102 99 98 101 96 84 69 53
232 225 225 232 235 227 234 227 225 221 205 206 189 217 273 188 166 174 174 147 132 131 129 124 118 112 100 90 84 82 82 80 80 80 84 92 94 97 88 79 73 81 75 61
249 246 236 234 231 225 233 234 222 213 208 219 207 209 259 215 178 172 160 140 134 131 125 118 113 108 102 93 87 85 84 80 77 78 78 84 87 81 74 66 58 58 65 55
244 239 218 229 224 216 223 204 168 167 181 206 193 204 232 57 128 151 149 144 139 135 131 130 129 126 121 113 108 103 99 92 84 81 77 75 77 77 71 66 58 52 46 39
234 233 197 197 219 212 211 203 180 153 159 176 189 200 180 114 86 118 137 139 140 140 139 140 138 132 129 128 122 112 105 99 92 88 85 79 76 75 70 63 61 56 49 35
250 245 174 189 199 215 193 210 255 209 161 158 167 176 117 117 112 128 139 143 148 148 146 145 138 135 135 133 123 116 110 105 100 95 91 84 79 77 72 67 58 49 35 22
272 277 192 168 188 237 247 219 240 236 165 161 167 183 171 169 162 160 156 156 155 153 150 146 141 138 138 129 123 119 114 109 101 93 92 91 79 75 74 68 54 35 24 16
180 278 216 164 195 205 195 204 228 265 330 148 149 142 122 157 161 164 164 160 159 156 153 147 143 139 131 126 125 120 115 112 109 104 93 85 75 67 69 67 49 25 12 1
167 247 239 202 206 229 230 198 213 175 165 336 91 91 69 104 120 148 154 154 154 151 148 144 140 135 134 136 132 126 122 114 109 105 99 95 84 68 62 58 38 17 1 344
167 218 193 150 173 207 228 213 227 285 338 295 88 132 113 106 106 126 141 147 149 148 146 143 141 142 146 144 137 130 122 119 113 107 105 97 82 66 51 38 17 359 341 326
178 236 244 198 175 169 183 199 210 218 219 218 141 131 152 132 131 134 139 146 148 151 151 150 148 150 149 144 136 128 123 118 111 102 96 89 80 69 41 17 354 336 325 317
208 263 256 260 202 171 176 191 205 217 227 229 202 156 165 159 154 152 150 150 151 158 159 155 154 152 146 140 133 126 122 117 114 108 102 96 78 62 28 358 334 320 312 308
201 277 278 251 184 176 185 195 205 215 224 243 272 273 148 146 139 143 152 158 162 165 160 154 152 149 146 140 132 125 120 118 115 113 110 106 78 44 2 324 309 302 298 295
184 235 260 212 161 155 215 207 207 213 217 220 232 237 207 124 142 154 159 163 163 159 154 153 151 145 139 133 128 124 121 116 111 111 111 105 67 1 323 309 305 300 299 302
193 227 282 143 145 209 237 193 198 213 220 218 225 221 208 169 129 108 132 147 147 145 145 142 136 129 124 119 116 114 115 115 117 120 120 114 66 325 315 309 306 306 306 306
200 204 250 204 214 243 227 194 189 203 231 217 218 206 137 110 79 43 46 108 123 125 126 123 120 118 114 115 116 116 116 121 124 121 113 99 13 315 309 306 305 306 307 304
187 195 214 236 222 239 86 54 359 137 251 248 207 174 147 131 134 159 99 91 96 102 107 111 112 112 113 116 120 123 128 131 126 118 110 73 308 303 300 301 305 303 303 297
165 182 202 204 240 281 77 31 41 156 229 339 18 136 141 133 124 121 106 97 99 102 107 110 112 113 118 122 124 125 126 122 117 115 128 287 300 301 298 299 296 297 297 298
167 171 181 178 211 244 159 137 117 143 51 32 73 100 100 99 101 104 105 106 108 110 111 112 113 113 114 119 121 121 119 117 120 137 216 283 299 302 304 299 296 298 300 300
183 183 175 188 204 164 113 94 86 112 105 88 93 108 115 112 112 112 110 112 113 114 114 115 118 116 112 113 120 122 121 123 130 152 287 306 310 302 299 299 300 301 298 298
170 172 175 177 171 148 117 103 101 105 102 97 109 115 117 118 119 118 118 119 118 118 120 124 124 123 119 109 102 114 121 124 125 41 328 317 309 304 304 299 294 294 298 301
149 160 175 170 129 126 151 146 118 101 95 94 93 101 114 119 121 124 125 126 126 125 124 128 131 131 132 127 117 118 123 118 86 3 329 314 308 308 305 298 292 299 284 297
166 174 176 196 176 165 169 148 123 115 111 110 108 100 101 115 121 122 124 127 129 129 127 127 127 128 131 132 131 128 121 108 73 344 322 317 317 312 306 304 305 307 310 316